Location: Buch
(49.7331°N, 12.1098°E)
Time: 09:05:42
(UTC+00:00)

EP 1 - Pass Details

Date: 12 May 2021
Orbit: 314 x 1668 km, 63.3° (Epoch: 25 August)

Event Time Altitude Azimuth Distance (km) Brightness Sun altitude
Exits shadow 21:13:48 21° 229° (SW) 912 6.3 -17.4°
Maximum altitude 21:15:37 75° 313° (NW) 361 4.4 -17.5°
Drops below altitude 10° 21:18:14 10° 40° (NE) 1,240 7.4 -17.7°
Sets 21:20:05 0° 42° (NE) 2,060 8.5 -17.8°
